THOR ABLESTAR DEB, 745

Orbit data source: Space-Track

THOR ABLESTAR DEB, 745 is space debris in LEO originally from a launch on Sat, 28 Sep 1963 UTC launched from the Air Force Western Test Range (AFWTR). Debris objects in space refer to the collection of defunct objects orbiting the Earth. Examples of debris include non-operational satellites, rocket bodies, and fragments generated from explosions, collisions, or faulty payload assembly.

Loading next visibility...
Identifier
745, 1963-038E
Orbit
LEO
Country
Flag of USUS
Related business
Manufacturer
Unknown
Mission
Spacecraft
Bus & Motor
Unknown
Mass
Unknown
Launch date (UTC)
1963-09-28 (62 years ago)
Launch vehicle
Unknown
Launch site
Air Force Western Test Range (AFWTR)
Object type
Payload
Rocket body
Debris
Shape & HBR
Unknown shape, 0.1 m
Radar Cross Section
Small (<0.1 m²)

Expand to show TLE details & history
Last TLE update: 8 hours ago

TLE from 8 hours ago
0 THOR ABLESTAR DEB
1   745U 63038E   25302.55047918  .00000286  00000-0  39928-3 0  9997
2   745  89.9918 336.3991 0016060 242.0498 274.5760 13.55482065 60183
Epoch: 2025-10-29T13:12Z
TLE epoch observation values (Epoch: 2025-10-29T13:12:41.401Z)
Latitude
23.57682°
Longitude
-79.89897°
Altitude
1,054.139 km
Speed
7.327 km/s
True Right ascension
10h 25m 34s
True Declination
23° 27' 22"
Sunlit
Object was in daylight at epoch
Visualization orbit readout
Latitude
Unknown
Longitude
Unknown
Altitude
Unknown
Speed
Unknown
Apparent Right ascension
Unknown
Apparent Declination
Unknown
Sunlit
N/A
Visualization observer readout
Local Sidereal Time
16:37:27
Azimuth
Unknown
Elevation
Unknown
Doppler factor
Unknown
Orbital elements
Apogee altitude
1,061.127 km
Perigee altitude
1,037.27 km
Semi-major axis
7,427.336 km
Eccentricity
0.00161
Inclination
89.9918°
RAAN
336.3991°
Arg. of periapsis
242.0498°
True anomaly
274.39252°
Mean anomaly
274.576°
Eccentric anomaly
274.48426°
Mean motion
3.39073 °/min
Orbital period
106.17 mins
BSTAR
0.00039928
Loading maneuver chart data...
Computing Atmospheric mass density...

Documentation

Showing up to 5 results
|